Vorticity
6 7 7 5 5 5 5 6 6 6 6 6 6 5 5 6 5 5 7 8 8 7 7 6 4 6 6 5 6 6 9 12 13 12 10 10 10 10 11 12 10 9 9 11 15 17 14 11 10 9 8 7 6 6 6 7 8 8 8 8 8 6 4 2 -1 -3 -2 -1 -2 -2 -0 3 5 6 6 6 6 5 5 5 5 5 5 4 5 5
7 7 6 6 6 7 7 7 7 7 6 6 7 6 6 7 6 6 7 7 6 6 6 5 4 7 6 7 8 9 11 13 11 10 10 12 12 12 13 11 10 10 11 14 16 13 9 7 7 7 7 6 7 7 7 8 8 7 5 5 6 6 5 4 3 2 2 1 -1 -1 1 4 5 6 7 6 5 5 4 5 5 5 5 6 6 6
7 8 7 8 8 7 7 7 7 7 7 7 7 6 7 6 6 7 7 7 5 5 5 4 4 6 7 9 10 9 11 10 8 9 12 13 12 11 10 10 12 13 13 13 11 8 7 8 7 7 8 7 8 8 8 8 7 5 3 3 5 6 7 7 6 5 3 1 1 3 4 5 6 6 6 6 5 5 4 4 4 4 5 5 5 6
7 9 9 9 8 8 8 8 9 8 8 8 7 7 7 6 6 7 6 5 4 5 5 4 5 6 8 10 9 9 11 9 9 12 11 9 8 9 10 13 15 14 12 11 8 7 8 9 8 8 9 9 9 8 7 6 4 3 2 4 5 6 7 6 5 4 3 3 5 6 7 7 7 6 5 6 6 6 6 5 4 4 4 5 7 9
7 7 7 7 9 9 9 9 9 8 8 7 7 6 6 6 6 5 5 5 5 6 5 7 7 6 10 11 7 10 14 12 11 10 8 8 9 12 13 14 13 11 10 8 7 7 8 9 9 8 8 7 7 5 5 4 3 4 4 6 6 5 5 4 4 5 6 7 7 8 7 7 7 7 8 8 7 8 8 8 8 8 9 10 11 11
5 6 7 7 9 9 9 9 8 7 7 6 6 6 5 6 5 5 5 5 6 5 7 10 7 5 12 13 11 13 12 11 11 8 7 10 13 15 13 10 8 8 7 6 5 6 7 8 8 6 5 5 5 5 6 6 7 8 7 6 5 4 4 5 7 9 9 8 7 7 7 7 8 8 8 7 6 6 7 9 11 11 11 11 10 9
5 6 7 8 8 9 9 8 7 6 6 6 6 5 5 5 5 6 6 6 6 6 10 12 7 8 12 11 13 16 13 10 9 9 13 16 16 15 11 7 6 6 6 6 5 5 5 5 5 5 5 6 6 7 7 8 8 7 6 5 5 6 8 9 9 9 8 8 8 8 8 8 8 7 6 6 6 7 8 9 9 9 9 8 8 8
6 5 6 8 8 8 7 6 6 6 6 6 6 6 6 6 6 7 6 7 7 8 13 13 8 12 14 9 8 9 10 11 11 12 16 16 14 10 7 6 5 5 6 6 5 5 4 3 4 4 6 6 7 7 7 6 5 4 5 6 8 9 9 8 7 6 7 9 10 9 8 6 6 7 7 8 9 10 10 10 9 9 9 8 8 8
6 5 6 7 7 7 6 6 6 6 6 6 6 6 6 6 7 7 8 10 9 11 14 11 9 12 13 12 10 7 8 10 12 14 13 11 9 6 4 4 4 5 5 4 4 4 4 4 5 6 7 7 7 7 6 6 5 6 7 7 7 6 5 5 6 7 7 7 7 7 8 7 8 9 9 9 10 9 9 9 9 9 9 9 9 9
6 6 7 7 7 7 6 6 7 6 7 6 5 6 6 8 9 10 12 12 11 12 13 11 11 11 12 14 14 14 14 12 12 12 9 8 6 4 4 4 5 5 4 3 3 3 5 6 7 8 8 7 7 6 5 6 7 7 7 6 6 6 8 10 11 10 9 8 8 8 8 8 9 9 8 8 8 7 8 8 8 9 9 10 10 10
7 7 7 7 7 6 6 7 7 7 7 6 7 9 9 11 11 11 12 12 11 13 13 11 11 12 14 15 13 15 16 13 10 8 6 6 4 4 6 5 5 4 3 4 5 7 9 10 10 9 8 7 6 5 7 8 8 8 8 9 10 13 14 13 11 9 8 7 7 7 6 6 6 7 7 7 8 8 8 9 9 9 10 10 10 10
7 7 7 7 6 7 8 9 8 8 8 9 10 11 10 10 10 10 11 11 12 12 12 13 15 16 15 13 12 11 10 7 6 5 4 5 5 6 6 5 5 4 4 6 8 10 11 11 10 8 6 4 4 6 8 8 8 9 10 11 11 10 8 6 5 5 5 5 4 5 5 6 7 7 8 9 10 10 10 10 10 9 10 10 11 11
7 8 7 7 9 9 10 9 9 10 10 10 12 11 11 12 10 9 11 12 12 13 14 15 15 14 12 10 9 7 5 4 4 4 4 5 6 5 5 5 5 6 8 9 10 10 9 7 5 3 2 3 6 8 8 8 10 10 9 7 6 5 4 4 4 4 5 5 5 6 7 8 9 10 10 10 10 10 10 10 10 10 9 10 10 10
6 7 7 8 10 10 9 9 9 9 8 9 11 12 14 15 13 13 15 15 14 14 14 13 11 10 9 6 6 6 4 3 3 5 6 6 5 5 6 7 8 8 9 9 8 7 5 2 1 2 5 8 10 9 9 9 8 6 5 4 4 5 5 5 5 5 6 7 8 9 10 10 10 10 10 10 10 10 9 9 9 8 8 8 9 9
8 8 8 9 9 9 9 10 9 8 10 12 14 14 16 16 15 16 17 15 13 10 9 9 8 6 5 4 4 3 1 2 6 8 7 5 5 6 8 9 8 8 9 9 10 8 4 1 3 6 9 10 10 8 8 7 5 5 6 6 6 6 6 6 5 7 7 8 10 10 11 11 10 10 10 9 9 8 8 8 8 8 9 10 10 10
9 9 10 10 10 11 12 12 12 13 14 15 16 17 16 14 12 11 11 10 8 7 7 7 5 4 5 4 3 1 3 7 8 6 5 6 8 9 10 11 11 11 12 11 8 3 2 4 8 11 11 10 10 9 8 8 7 8 7 6 6 5 6 7 7 9 9 10 11 10 11 11 10 10 9 9 9 9 9 10 11 11 12 12 12 12
7 8 12 13 12 13 14 13 15 16 16 15 16 15 12 9 8 7 6 7 6 6 6 6 6 6 6 3 3 5 7 8 6 6 8 9 10 11 11 12 12 12 10 6 4 6 9 13 12 11 10 9 9 8 7 7 6 5 5 5 5 6 7 9 10 11 11 11 10 10 10 9 9 9 9 10 11 11 12 12 13 13 13 13 14 14
9 8 10 13 12 13 13 13 13 12 11 11 11 9 7 7 7 6 6 6 5 4 4 5 6 6 6 4 5 7 7 7 7 7 8 10 12 13 13 13 13 11 9 8 10 11 9 8 6 6 7 6 6 5 4 4 3 4 5 7 8 10 10 10 10 10 10 10 9 9 9 8 9 9 10 11 12 12 13 12 13 14 14 16 15 15
11 8 7 10 12 12 11 10 10 9 9 8 7 6 6 6 6 5 6 5 4 5 5 6 6 6 6 5 7 9 9 8 7 8 12 15 14 13 12 13 11 9 8 8 7 5 3 3 5 5 4 3 3 3 4 5 6 8 9 9 9 9 9 8 8 8 8 9 9 10 10 10 11 11 12 12 12 13 14 14 15 15 16 17 15 16
11 11 11 11 11 11 9 8 8 7 6 5 5 6 5 5 4 4 5 6 7 7 6 7 9 5 4 7 9 9 8 8 11 13 14 12 10 12 13 11 8 6 5 4 4 4 6 6 5 3 3 3 4 4 6 6 7 8 7 7 7 7 7 8 8 9 9 9 10 11 12 12 12 13 13 14 15 16 17 16 17 17 16 16 15 15
9 11 13 12 10 9 7 6 5 3 4 4 6 7 7 7 6 6 8 8 8 8 8 10 10 3 4 9 8 6 9 11 12 11 12 15 17 17 12 6 3 3 3 4 5 5 5 3 2 3 4 5 6 7 8 9 11 12 12 13 15 16 18 18 18 18 18 18 17 16 16 16 16 16 16 17 17 16 15 15 15 15 14 14 13 12
8 8 10 9 7 6 5 5 5 5 7 8 9 10 8 8 8 8 9 9 9 9 8 9 7 4 7 10 8 10 13 13 14 17 19 18 12 3 -1 -1 2 4 5 5 4 3 3 3 5 7 8 10 12 14 15 15 15 16 16 17 17 18 19 19 19 21 22 24 23 22 21 20 19 18 16 16 15 14 14 14 14 13 12 12 12 11
8 7 8 8 8 7 8 9 10 10 10 9 10 9 8 9 10 9 8 8 8 7 7 8 6 8 12 13 14 16 17 19 20 18 10 3 -0 1 3 6 6 5 4 3 3 4 7 10 12 14 15 17 18 17 16 15 15 15 14 15 14 14 15 16 17 20 22 24 23 21 20 18 16 15 14 15 14 14 14 12 12 12 12 13 12 12
9 9 10 10 11 11 10 10 9 9 8 8 8 8 8 9 8 8 7 7 7 7 8 8 8 15 18 17 20 21 18 16 10 4 2 4 8 8 6 4 2 2 3 4 9 13 16 17 17 18 19 18 17 16 16 17 17 17 17 17 16 16 16 17 18 20 21 21 20 18 17 15 14 14 14 15 14 12 12 11 12 13 12 13 12 11
9 9 8 8 9 10 10 9 8 8 9 10 9 8 10 10 9 10 9 8 9 10 13 13 13 19 19 16 18 15 9 6 3 5 8 7 4 1 0 2 3 7 11 14 18 19 18 17 17 18 17 16 16 16 16 17 17 18 19 20 20 19 18 18 19 21 21 20 19 17 16 14 14 14 14 13 12 11 11 12 13 13 12 11 9 9
10 10 9 9 10 10 10 10 9 10 12 12 11 10 12 13 13 12 10 11 11 13 18 17 13 14 12 6 5 3 2 4 5 5 3 -0 1 3 6 9 12 16 18 19 19 17 15 15 15 14 13 13 14 15 16 17 17 18 20 21 23 22 21 20 20 21 21 19 18 16 15 14 13 14 13 11 11 12 13 13 12 11 10 9 9 10
12 13 12 11 11 11 10 11 10 10 11 11 11 12 13 14 13 11 11 12 12 13 16 13 9 11 9 3 1 3 5 5 3 2 3 4 6 9 13 16 17 18 17 16 15 12 11 11 9 9 10 10 12 13 14 15 15 16 17 18 22 24 24 21 20 22 21 19 18 16 15 14 13 13 12 12 13 13 13 12 11 10 9 9 10 11
11 12 11 10 12 11 9 11 11 10 9 10 12 13 13 11 11 11 11 12 14 15 13 10 9 11 11 10 11 9 6 5 5 6 7 9 12 16 18 17 14 14 13 11 9 7 7 6 6 8 8 8 9 10 11 12 12 13 13 14 18 22 24 22 20 21 21 19 18 16 15 14 12 12 12 12 13 12 12 11 10 10 10 10 11 10
10 10 8 9 13 11 8 11 12 10 10 11 13 13 11 10 12 13 12 13 15 14 12 12 13 12 12 12 10 7 7 8 8 8 11 16 19 18 15 12 12 12 9 6 5 4 5 6 8 8 8 8 9 9 10 11 10 11 10 11 13 18 22 22 19 19 19 18 17 14 13 12 11 11 11 11 12 11 11 10 10 10 10 10 10 9
8 8 7 8 11 11 9 12 12 10 11 12 12 13 12 13 15 13 12 14 16 15 14 15 15 10 7 7 7 8 8 7 8 14 18 18 15 12 11 10 10 7 4 4 5 6 7 7 8 8 8 9 9 9 10 10 10 10 9 10 11 15 20 21 19 18 18 17 16 13 11 11 10 10 9 9 10 10 10 11 11 11 11 11 11 10
8 8 8 9 11 12 10 11 12 10 11 12 13 14 15 15 14 13 13 15 15 13 11 10 8 5 4 6 8 7 4 7 15 19 16 11 10 10 9 7 5 5 5 6 6 6 6 6 7 7 8 9 9 10 10 10 10 9 9 10 11 14 19 20 19 18 17 17 17 14 12 11 10 10 9 10 11 11 12 12 12 11 11 11 10 9
8 9 10 10 12 11 9 11 11 9 12 14 14 14 14 12 13 13 12 12 12 9 7 6 4 3 5 6 3 1 8 17 20 15 11 9 9 8 6 6 5 5 5 4 4 4 5 6 7 8 8 9 10 10 10 10 9 9 9 10 12 15 19 20 19 17 16 16 16 15 13 12 12 12 11 12 13 13 12 12 11 11 11 11 10 9
10 10 11 10 10 9 9 10 9 9 14 16 13 12 13 14 15 12 9 10 10 8 7 7 5 6 8 5 3 10 18 19 13 11 11 10 7 5 6 6 5 4 4 4 4 5 6 7 8 8 9 10 10 10 10 9 9 9 10 11 13 16 19 20 19 16 14 14 14 14 13 13 13 13 13 14 13 13 13 12 12 11 10 11 10 9
11 11 11 11 10 9 9 8 8 12 15 14 11 13 15 15 12 8 8 8 8 7 7 6 7 8 6 5 12 21 20 14 12 12 10 7 6 6 4 3 3 3 4 4 5 6 7 7 8 9 9 10 10 10 9 9 9 9 10 11 13 16 18 19 19 16 14 13 13 13 13 13 14 14 13 14 13 12 13 11 11 11 10 11 10 9
11 11 11 11 10 9 9 8 9 10 13 14 14 14 13 11 8 8 8 8 7 7 6 5 6 4 3 11 22 21 14 11 12 9 4 4 6 6 3 3 4 4 5 5 6 6 6 7 8 8 9 9 9 9 8 8 9 9 11 12 13 16 17 18 19 17 15 14 13 14 14 13 13 12 11 12 11 11 12 11 11 11 11 12 12 13
10 10 10 9 9 7 8 10 10 11 14 16 13 10 10 10 10 7 4 5 6 5 5 5 3 3 11 23 23 13 10 11 8 4 4 5 4 3 4 6 5 5 6 7 7 7 7 8 8 8 9 9 8 9 8 8 9 10 12 13 14 16 18 18 19 17 16 15 14 14 13 13 13 12 12 12 12 12 13 13 14 14 15 17 17 19
9 9 8 8 8 8 10 11 11 14 18 17 11 9 11 12 9 5 5 9 8 5 7 6 4 10 23 25 15 9 11 9 3 3 5 4 3 5 5 6 6 6 6 7 7 7 6 7 7 7 8 8 8 8 8 9 10 11 12 14 15 17 18 18 18 17 15 14 14 14 14 15 16 16 17 17 17 17 17 17 18 18 18 19 19 20
9 9 8 8 9 11 12 11 12 14 16 14 10 11 13 12 8 6 8 10 7 5 5 4 10 24 27 16 9 10 10 3 -0 2 4 3 4 4 4 5 6 6 7 8 6 5 5 6 7 8 8 8 8 8 8 9 11 12 14 15 16 18 19 20 19 18 16 16 16 16 17 18 19 19 19 20 19 20 20 20 20 20 19 19 20 19
10 9 9 10 11 12 13 13 15 16 16 13 9 9 10 8 5 6 6 5 4 4 3 8 22 29 18 8 10 11 7 5 3 2 2 3 4 4 5 6 6 7 8 7 5 5 5 6 7 8 8 8 8 8 8 10 13 14 15 15 16 18 20 21 21 19 18 17 17 17 17 17 18 18 18 18 18 18 18 18 19 19 19 19 19 19
9 9 9 11 13 13 13 15 16 16 15 12 8 8 8 5 4 6 5 4 4 3 6 20 30 22 9 8 12 8 5 8 8 5 5 5 5 6 6 6 7 8 8 6 5 5 5 6 7 8 7 7 8 8 9 12 14 15 15 16 17 20 21 22 22 19 17 18 16 16 17 16 17 17 16 16 16 15 16 16 16 17 18 18 19 19
8 9 10 13 14 14 13 14 15 14 12 8 7 8 8 6 5 4 3 4 4 5 17 30 27 12 7 11 10 4 4 7 8 7 6 5 5 6 6 7 8 8 7 6 6 4 4 6 7 7 7 7 8 9 10 12 15 16 16 17 18 20 21 22 21 18 16 17 17 16 17 16 16 16 16 16 16 16 16 16 16 17 17 18 19 19
9 11 13 15 15 13 13 13 13 11 8 6 7 8 7 5 3 1 3 5 7 16 29 30 16 7 9 12 7 5 6 5 5 5 4 5 6 6 6 8 7 7 7 6 5 4 4 5 6 7 8 7 8 9 10 13 16 16 17 18 19 20 21 20 19 17 15 16 16 15 16 15 15 16 16 17 18 18 19 19 20 20 19 19 19 20
10 14 16 15 14 13 13 13 13 11 8 7 7 6 4 3 3 4 7 8 14 28 33 21 9 8 12 9 4 4 5 4 4 5 5 6 6 6 7 7 6 7 7 5 5 4 3 5 7 8 8 8 8 10 10 13 17 17 17 18 19 20 19 17 16 14 13 13 12 12 12 12 12 12 12 13 14 15 18 20 21 22 21 20 20 20
15 18 16 14 14 14 13 12 11 10 9 7 6 4 4 5 7 8 9 14 25 34 26 12 8 10 9 5 3 5 6 6 6 6 5 5 5 5 6 6 5 7 7 6 6 5 4 5 7 8 9 8 9 10 12 14 17 17 18 19 20 19 17 15 14 13 13 13 12 12 13 13 13 13 13 14 14 14 15 16 18 21 23 22 22 22
18 17 14 13 15 14 11 10 9 8 7 5 4 4 5 8 9 10 15 25 33 30 16 8 9 10 6 5 6 7 7 6 5 5 4 3 4 4 5 5 6 7 7 7 6 5 4 6 7 8 10 9 9 11 13 14 16 17 19 20 19 18 16 15 16 16 17 18 19 19 20 20 21 23 24 25 26 24 22 19 17 20 23 23 24 23
17 14 13 14 13 11 9 8 7 6 5 3 4 6 8 11 12 15 24 32 31 20 10 8 10 8 6 7 8 8 5 3 4 4 2 3 5 5 5 5 6 7 8 8 6 4 4 6 7 9 9 9 10 12 13 15 17 18 20 20 18 17 16 16 18 19 20 22 22 22 23 23 25 27 28 29 30 31 32 28 22 22 24 24 24 25
14 13 12 12 10 7 6 5 4 4 4 5 7 9 11 13 14 20 30 33 24 11 7 8 9 7 7 8 8 6 4 3 4 3 3 4 4 4 5 5 7 9 9 8 6 4 5 6 7 8 9 9 11 12 13 16 18 19 20 19 17 18 19 21 23 23 23 24 22 21 21 22 23 24 22 22 22 23 28 29 25 24 25 23 24 26
13 12 11 9 7 6 5 4 4 5 7 8 10 10 12 13 17 26 34 29 16 8 9 11 10 8 8 9 7 4 3 4 4 3 3 4 3 4 5 6 8 10 9 7 6 5 5 7 7 8 9 10 12 13 14 17 20 20 19 18 18 21 23 24 25 25 25 24 21 19 19 19 19 18 15 13 13 16 21 25 23 23 26 25 24 26
11 10 9 8 7 6 5 5 6 6 8 9 10 11 13 15 22 32 33 21 10 9 12 11 9 8 9 8 4 2 3 4 3 3 3 4 3 4 6 7 9 11 9 7 6 5 6 8 8 9 11 11 12 13 14 18 21 20 18 19 21 22 22 22 22 23 24 23 20 18 17 16 15 13 11 10 10 13 20 24 21 21 25 27 27 27
10 9 8 7 7 6 5 7 9 10 11 11 11 12 15 20 27 32 26 14 8 10 12 9 7 6 7 5 3 3 3 3 3 3 3 4 4 5 7 9 10 10 8 6 5 5 7 8 9 10 11 12 12 13 15 19 22 21 19 20 21 20 19 19 21 23 23 22 19 17 15 13 11 10 10 10 11 12 18 23 21 19 22 26 29 27
9 8 7 7 7 6 7 8 10 12 12 12 12 13 17 23 28 26 18 10 10 12 12 8 5 4 4 4 3 3 3 2 3 3 3 4 6 6 8 10 10 9 8 6 5 6 7 8 9 10 11 11 12 14 17 22 22 20 19 20 19 18 19 22 26 27 25 21 19 18 16 13 12 10 10 13 15 17 18 21 22 22 21 24 28 28
Height
5796 5795 5794 5792 5791 5789 5787 5785 5783 5781 5779 5777 5775 5773 5771 5769 5767 5764 5760 5758 5756 5754 5753 5750 5746 5745 5743 5740 5735 5731 5728 5725 5723 5721 5719 5716 5713 5711 5709 5706 5703 5700 5697 5694 5691 5689 5687 5684 5682 5679 5677 5675 5672 5669 5667 5665 5662 5660 5657 5654 5652 5649 5646 5643 5641 5638 5636 5634 5633 5631 5629 5627 5625 5623 5621 5619 5617 5615 5614 5612 5610 5608 5605 5603 5601 5598
5793 5792 5791 5789 5787 5785 5783 5781 5779 5777 5775 5773 5770 5768 5766 5764 5761 5759 5756 5753 5751 5749 5748 5744 5742 5740 5737 5735 5730 5726 5723 5719 5717 5715 5712 5710 5708 5705 5703 5700 5697 5695 5691 5688 5686 5683 5681 5678 5676 5674 5671 5669 5666 5663 5661 5659 5656 5654 5651 5648 5645 5642 5639 5636 5634 5631 5629 5627 5625 5623 5621 5619 5617 5614 5612 5610 5608 5606 5604 5602 5600 5598 5596 5594 5591 5588
5790 5788 5786 5785 5783 5781 5779 5777 5775 5773 5770 5768 5766 5763 5762 5759 5756 5754 5751 5749 5746 5743 5742 5739 5737 5735 5731 5728 5725 5720 5717 5714 5711 5709 5706 5704 5702 5699 5697 5694 5691 5689 5686 5683 5680 5678 5675 5673 5670 5668 5665 5663 5660 5658 5655 5653 5651 5648 5644 5641 5638 5635 5632 5630 5627 5624 5622 5619 5617 5614 5612 5609 5608 5605 5603 5601 5598 5596 5595 5592 5591 5589 5586 5584 5582 5579
5786 5785 5783 5781 5779 5777 5775 5773 5771 5768 5766 5764 5761 5759 5757 5753 5750 5749 5746 5744 5741 5738 5736 5734 5731 5729 5726 5722 5719 5714 5711 5708 5705 5702 5700 5698 5696 5693 5691 5688 5686 5683 5680 5677 5675 5672 5670 5667 5664 5662 5659 5657 5655 5652 5650 5648 5645 5641 5637 5634 5631 5628 5626 5623 5620 5617 5615 5612 5609 5606 5603 5600 5598 5596 5593 5591 5589 5586 5584 5582 5579 5577 5575 5573 5571 5568
5782 5781 5779 5777 5775 5773 5771 5768 5766 5764 5762 5759 5756 5754 5751 5749 5745 5743 5741 5739 5736 5733 5730 5727 5726 5724 5720 5716 5713 5708 5704 5702 5699 5697 5694 5692 5691 5688 5685 5683 5680 5677 5674 5672 5669 5667 5664 5661 5659 5656 5653 5651 5649 5646 5643 5641 5638 5634 5630 5627 5624 5622 5619 5616 5613 5610 5607 5604 5601 5598 5595 5592 5589 5586 5583 5581 5579 5576 5573 5570 5568 5565 5563 5561 5559 5556
5779 5777 5775 5773 5771 5769 5766 5764 5761 5759 5757 5755 5752 5749 5746 5744 5741 5738 5735 5733 5731 5728 5725 5721 5719 5719 5715 5708 5705 5703 5699 5696 5693 5691 5689 5687 5685 5683 5680 5677 5674 5671 5669 5667 5664 5661 5658 5656 5653 5650 5647 5645 5642 5639 5636 5633 5630 5626 5623 5620 5618 5615 5613 5609 5605 5602 5599 5596 5593 5589 5586 5583 5580 5578 5574 5571 5569 5566 5563 5561 5558 5555 5552 5550 5548 5545
5775 5773 5771 5769 5767 5765 5762 5760 5757 5755 5752 5750 5747 5744 5741 5739 5736 5733 5730 5727 5724 5722 5720 5716 5711 5711 5711 5703 5698 5697 5694 5690 5686 5684 5683 5681 5679 5676 5673 5670 5668 5666 5664 5661 5658 5655 5652 5650 5647 5644 5641 5638 5635 5631 5628 5625 5622 5619 5616 5613 5611 5608 5605 5601 5597 5594 5590 5586 5583 5579 5576 5573 5570 5568 5565 5561 5558 5556 5553 5551 5548 5544 5541 5538 5536 5533
5771 5769 5767 5765 5763 5760 5758 5756 5753 5750 5747 5745 5742 5739 5736 5733 5730 5727 5725 5721 5718 5716 5714 5710 5704 5703 5704 5700 5695 5692 5688 5684 5681 5678 5676 5674 5672 5669 5666 5664 5662 5660 5659 5656 5653 5650 5647 5643 5640 5637 5633 5630 5627 5623 5620 5617 5614 5611 5608 5605 5602 5599 5595 5592 5588 5584 5581 5577 5573 5569 5566 5563 5560 5557 5554 5551 5548 5545 5542 5540 5537 5533 5530 5527 5524 5521
5768 5766 5763 5761 5759 5756 5754 5751 5749 5746 5742 5740 5737 5734 5731 5728 5725 5722 5719 5716 5713 5711 5709 5704 5700 5697 5696 5694 5691 5687 5682 5678 5675 5672 5670 5668 5666 5664 5662 5660 5658 5656 5654 5651 5648 5644 5641 5637 5633 5629 5625 5621 5618 5615 5611 5608 5605 5602 5598 5595 5592 5589 5585 5582 5578 5575 5572 5568 5564 5560 5556 5553 5550 5546 5544 5541 5538 5534 5531 5528 5525 5522 5518 5515 5512 5509
5764 5762 5759 5757 5754 5752 5749 5746 5744 5741 5738 5735 5732 5728 5725 5722 5720 5716 5713 5710 5707 5705 5703 5699 5695 5693 5690 5687 5684 5681 5677 5673 5670 5667 5665 5663 5661 5659 5657 5655 5653 5650 5647 5644 5641 5637 5633 5629 5625 5621 5617 5613 5610 5607 5603 5600 5597 5593 5589 5586 5583 5580 5576 5573 5569 5565 5562 5559 5556 5553 5548 5545 5541 5537 5533 5530 5527 5524 5520 5518 5515 5511 5507 5504 5500 5497
5760 5758 5755 5753 5750 5747 5744 5741 5739 5736 5732 5729 5726 5723 5720 5716 5714 5711 5708 5705 5702 5699 5697 5694 5690 5687 5684 5680 5676 5674 5671 5668 5665 5663 5661 5659 5656 5653 5651 5648 5646 5642 5639 5636 5633 5629 5625 5621 5616 5612 5609 5605 5602 5599 5596 5592 5588 5584 5580 5577 5574 5571 5567 5564 5561 5557 5554 5550 5547 5543 5540 5536 5531 5527 5523 5520 5516 5513 5509 5506 5504 5500 5497 5493 5489 5485
5756 5753 5751 5748 5745 5742 5740 5736 5733 5730 5727 5724 5721 5718 5715 5711 5708 5706 5703 5699 5697 5694 5691 5688 5685 5681 5678 5674 5671 5669 5666 5663 5661 5659 5656 5654 5650 5647 5644 5641 5638 5634 5631 5628 5624 5620 5616 5612 5608 5604 5600 5597 5594 5591 5587 5582 5578 5574 5571 5567 5565 5562 5558 5555 5552 5548 5544 5540 5536 5532 5528 5524 5521 5517 5513 5510 5506 5502 5497 5495 5492 5489 5486 5481 5477 5473
5753 5750 5746 5743 5741 5738 5735 5731 5728 5725 5722 5719 5715 5712 5709 5706 5703 5700 5698 5694 5691 5689 5685 5682 5680 5676 5673 5670 5667 5665 5663 5660 5657 5654 5651 5648 5645 5642 5638 5634 5630 5627 5624 5621 5617 5613 5609 5604 5600 5596 5593 5590 5586 5582 5578 5573 5569 5565 5562 5559 5556 5553 5549 5545 5541 5537 5533 5529 5525 5521 5517 5513 5509 5506 5502 5499 5496 5492 5487 5483 5480 5477 5474 5470 5466 5461
5749 5746 5742 5739 5736 5732 5729 5726 5722 5719 5717 5713 5710 5706 5703 5700 5696 5694 5692 5689 5686 5684 5680 5678 5676 5673 5669 5666 5663 5660 5657 5655 5653 5650 5646 5643 5640 5636 5632 5628 5625 5622 5618 5615 5611 5607 5602 5598 5594 5590 5586 5583 5579 5574 5570 5565 5561 5558 5554 5550 5547 5543 5539 5535 5531 5527 5522 5518 5514 5509 5506 5502 5497 5494 5491 5488 5484 5481 5477 5473 5470 5467 5462 5458 5455 5450
5744 5741 5738 5734 5730 5727 5723 5720 5717 5714 5711 5708 5705 5701 5698 5694 5690 5688 5685 5683 5681 5679 5677 5674 5672 5669 5665 5662 5659 5655 5652 5650 5648 5645 5641 5638 5635 5631 5627 5624 5621 5617 5613 5609 5605 5600 5596 5591 5587 5583 5580 5575 5571 5566 5562 5557 5553 5550 5546 5542 5538 5534 5530 5525 5521 5517 5512 5508 5504 5499 5494 5490 5486 5482 5478 5475 5472 5468 5465 5462 5459 5456 5452 5447 5444 5440
5739 5736 5733 5729 5725 5722 5718 5715 5711 5709 5705 5702 5700 5696 5693 5690 5686 5683 5681 5678 5676 5674 5673 5670 5667 5664 5661 5656 5653 5650 5647 5645 5642 5639 5636 5634 5631 5627 5624 5620 5616 5612 5608 5603 5599 5594 5590 5585 5581 5577 5573 5568 5564 5560 5555 5550 5546 5542 5538 5534 5529 5525 5520 5515 5510 5506 5502 5497 5493 5488 5483 5478 5474 5469 5465 5462 5459 5455 5451 5449 5446 5443 5440 5435 5432 5428
5734 5732 5729 5725 5721 5718 5714 5711 5708 5705 5701 5698 5695 5692 5689 5686 5683 5679 5677 5675 5671 5668 5667 5665 5662 5659 5655 5650 5645 5644 5643 5639 5636 5634 5631 5628 5624 5621 5618 5614 5610 5607 5603 5598 5593 5588 5584 5581 5576 5572 5567 5563 5558 5554 5549 5544 5539 5534 5529 5524 5520 5515 5510 5505 5500 5496 5491 5486 5482 5478 5472 5467 5462 5457 5453 5449 5446 5442 5438 5435 5431 5428 5426 5422 5418 5414
5729 5728 5725 5722 5718 5714 5711 5708 5705 5702 5698 5695 5692 5689 5685 5682 5679 5675 5673 5670 5667 5663 5661 5660 5657 5653 5649 5644 5640 5638 5636 5633 5630 5628 5625 5621 5618 5615 5612 5609 5605 5601 5596 5591 5586 5582 5578 5574 5570 5565 5561 5556 5551 5546 5541 5535 5530 5525 5520 5514 5509 5504 5500 5495 5490 5485 5480 5475 5470 5466 5461 5456 5450 5445 5441 5437 5433 5429 5425 5421 5417 5413 5411 5408 5404 5400
5724 5723 5722 5718 5715 5711 5708 5704 5702 5699 5695 5692 5689 5686 5682 5679 5675 5671 5668 5665 5662 5658 5655 5653 5651 5647 5643 5639 5635 5632 5630 5626 5623 5621 5618 5615 5612 5610 5606 5603 5598 5593 5587 5582 5578 5575 5571 5566 5561 5557 5552 5548 5543 5538 5532 5526 5521 5516 5511 5505 5499 5494 5489 5484 5478 5473 5469 5463 5457 5453 5448 5443 5438 5433 5428 5424 5419 5415 5411 5407 5404 5400 5397 5394 5390 5386
5719 5717 5716 5714 5711 5707 5704 5700 5698 5695 5692 5688 5685 5682 5679 5675 5672 5667 5664 5661 5657 5653 5649 5646 5643 5639 5636 5633 5630 5626 5623 5620 5617 5615 5612 5610 5606 5603 5599 5594 5589 5584 5579 5575 5571 5567 5563 5558 5554 5549 5544 5540 5534 5529 5523 5517 5512 5506 5500 5495 5489 5483 5478 5472 5466 5461 5457 5452 5446 5440 5435 5430 5425 5420 5416 5411 5406 5402 5398 5394 5391 5387 5384 5381 5377 5373
5716 5713 5711 5710 5707 5703 5700 5696 5693 5690 5687 5684 5680 5677 5674 5670 5667 5663 5660 5657 5653 5648 5645 5641 5637 5633 5631 5628 5624 5620 5617 5615 5612 5609 5606 5603 5599 5595 5590 5585 5581 5577 5573 5568 5564 5559 5555 5550 5546 5540 5535 5530 5525 5519 5513 5507 5501 5495 5488 5483 5477 5471 5465 5460 5455 5449 5444 5439 5434 5428 5424 5419 5414 5409 5404 5400 5395 5390 5386 5382 5379 5376 5372 5369 5366 5362
5713 5709 5707 5706 5703 5700 5696 5692 5688 5685 5681 5678 5674 5671 5668 5665 5661 5657 5654 5650 5647 5643 5640 5636 5630 5626 5626 5623 5618 5614 5612 5609 5606 5603 5598 5595 5591 5586 5582 5577 5573 5569 5565 5560 5555 5551 5546 5541 5536 5531 5525 5520 5514 5508 5503 5496 5490 5483 5477 5471 5465 5459 5452 5447 5442 5437 5432 5427 5422 5416 5411 5407 5402 5398 5393 5389 5385 5380 5375 5372 5369 5365 5361 5359 5355 5351
5709 5705 5703 5701 5699 5695 5691 5687 5683 5680 5676 5673 5669 5665 5662 5658 5655 5651 5647 5644 5640 5636 5633 5630 5625 5620 5619 5618 5613 5609 5606 5602 5599 5595 5591 5587 5583 5579 5575 5571 5566 5562 5557 5553 5548 5543 5538 5532 5526 5521 5516 5510 5504 5498 5492 5485 5479 5472 5465 5459 5453 5447 5441 5435 5430 5425 5420 5415 5410 5404 5399 5395 5391 5386 5382 5378 5374 5370 5365 5362 5358 5355 5351 5348 5344 5340
5705 5700 5697 5695 5693 5691 5687 5682 5678 5675 5671 5668 5664 5660 5657 5654 5650 5647 5643 5639 5634 5631 5628 5625 5621 5616 5612 5611 5608 5604 5600 5596 5592 5588 5584 5580 5576 5572 5568 5564 5560 5556 5550 5545 5541 5535 5529 5523 5517 5512 5506 5500 5494 5488 5481 5475 5468 5461 5454 5447 5442 5436 5430 5423 5418 5413 5408 5403 5399 5393 5388 5384 5380 5376 5371 5367 5363 5359 5355 5351 5348 5344 5340 5337 5334 5330
5700 5696 5691 5687 5685 5684 5681 5677 5673 5670 5667 5664 5659 5656 5653 5650 5646 5642 5638 5634 5629 5626 5623 5620 5617 5613 5607 5604 5602 5599 5595 5591 5586 5582 5578 5573 5570 5566 5562 5558 5553 5548 5543 5538 5533 5527 5521 5514 5509 5503 5497 5490 5484 5478 5472 5465 5458 5451 5444 5436 5430 5425 5419 5413 5407 5402 5397 5392 5388 5383 5378 5373 5369 5365 5361 5357 5353 5349 5345 5341 5337 5334 5330 5327 5324 5320
5696 5693 5688 5683 5679 5676 5673 5670 5666 5663 5660 5658 5654 5650 5647 5644 5640 5636 5631 5628 5623 5620 5617 5613 5612 5610 5605 5600 5597 5593 5589 5586 5582 5578 5574 5569 5564 5559 5555 5551 5545 5540 5535 5530 5524 5518 5512 5506 5500 5494 5487 5481 5475 5468 5462 5456 5449 5442 5435 5426 5418 5413 5408 5403 5397 5391 5386 5382 5377 5373 5368 5364 5359 5355 5352 5347 5343 5340 5336 5332 5328 5324 5320 5317 5314 5311
5692 5690 5685 5680 5676 5672 5668 5664 5661 5657 5653 5651 5647 5644 5641 5637 5634 5629 5625 5622 5618 5615 5613 5608 5604 5604 5601 5595 5591 5587 5583 5579 5576 5572 5568 5563 5558 5553 5547 5542 5536 5531 5526 5520 5514 5508 5503 5497 5491 5485 5479 5472 5466 5459 5452 5445 5438 5432 5425 5418 5410 5403 5397 5392 5387 5381 5376 5371 5367 5363 5358 5354 5349 5345 5342 5338 5334 5330 5326 5323 5318 5315 5311 5307 5303 5301
5688 5686 5681 5677 5674 5670 5664 5661 5657 5653 5648 5645 5642 5639 5635 5631 5627 5623 5619 5616 5612 5610 5607 5603 5597 5595 5593 5588 5584 5580 5576 5572 5567 5562 5558 5554 5549 5544 5539 5533 5528 5523 5517 5511 5505 5500 5495 5490 5483 5477 5470 5463 5458 5451 5444 5437 5430 5423 5416 5410 5403 5396 5389 5383 5377 5372 5367 5362 5357 5353 5348 5344 5340 5335 5331 5328 5324 5320 5317 5313 5309 5305 5301 5297 5293 5289
5683 5680 5677 5673 5670 5666 5660 5656 5653 5648 5644 5640 5637 5634 5630 5625 5622 5618 5614 5610 5607 5604 5601 5598 5592 5587 5584 5581 5576 5571 5567 5563 5558 5554 5549 5545 5540 5535 5530 5526 5521 5516 5510 5505 5499 5493 5487 5480 5474 5468 5461 5456 5450 5444 5438 5431 5424 5417 5409 5401 5394 5387 5380 5374 5368 5363 5358 5352 5347 5343 5338 5334 5330 5326 5322 5317 5314 5310 5306 5303 5299 5295 5291 5287 5283 5279
5679 5675 5671 5668 5666 5662 5656 5652 5648 5644 5639 5636 5633 5629 5624 5620 5616 5612 5608 5604 5601 5598 5594 5591 5587 5581 5577 5574 5569 5564 5559 5555 5551 5546 5542 5537 5533 5528 5523 5518 5513 5508 5502 5497 5491 5485 5478 5472 5466 5460 5454 5448 5442 5436 5430 5423 5416 5408 5401 5393 5386 5379 5371 5365 5359 5353 5348 5343 5338 5333 5329 5324 5320 5316 5311 5307 5303 5300 5296 5292 5288 5284 5280 5277 5273 5269
5674 5670 5666 5662 5660 5656 5651 5647 5643 5638 5634 5630 5627 5623 5618 5614 5610 5606 5602 5599 5596 5592 5588 5585 5582 5577 5572 5568 5563 5558 5553 5549 5544 5540 5535 5531 5526 5521 5516 5510 5504 5499 5494 5488 5483 5477 5472 5466 5459 5453 5446 5440 5433 5427 5420 5414 5407 5399 5391 5384 5377 5369 5362 5356 5349 5344 5338 5333 5328 5323 5318 5314 5310 5305 5300 5296 5292 5289 5285 5281 5277 5273 5269 5266 5262 5258
5670 5666 5661 5657 5654 5650 5646 5642 5637 5632 5628 5625 5621 5617 5612 5607 5603 5599 5596 5593 5590 5586 5583 5579 5575 5571 5568 5563 5558 5552 5546 5541 5536 5532 5528 5524 5519 5513 5508 5504 5499 5493 5488 5482 5477 5472 5466 5459 5452 5445 5439 5432 5425 5418 5411 5404 5397 5390 5382 5374 5367 5360 5353 5346 5339 5334 5328 5322 5317 5313 5308 5303 5299 5295 5290 5286 5282 5278 5274 5270 5266 5263 5259 5255 5252 5248
5665 5661 5657 5652 5648 5645 5640 5636 5632 5627 5623 5619 5615 5611 5607 5602 5598 5594 5590 5587 5584 5580 5576 5572 5567 5563 5560 5556 5552 5545 5538 5533 5528 5523 5518 5515 5512 5507 5502 5498 5493 5488 5482 5476 5470 5464 5458 5451 5444 5437 5430 5423 5416 5409 5401 5394 5386 5379 5371 5364 5357 5349 5342 5336 5329 5323 5318 5312 5307 5302 5297 5293 5289 5285 5280 5276 5272 5268 5264 5260 5256 5252 5249 5245 5242 5238
5660 5656 5652 5647 5643 5640 5635 5631 5627 5622 5618 5615 5610 5605 5601 5597 5593 5589 5585 5582 5579 5575 5569 5564 5560 5556 5552 5548 5543 5539 5533 5526 5520 5514 5509 5505 5504 5501 5497 5491 5486 5481 5475 5470 5463 5456 5450 5443 5436 5429 5421 5414 5408 5400 5392 5384 5376 5368 5360 5353 5346 5339 5332 5326 5319 5313 5308 5303 5297 5292 5287 5282 5278 5274 5269 5265 5261 5257 5253 5249 5245 5242 5238 5235 5231 5228
5656 5652 5648 5643 5638 5635 5631 5626 5622 5618 5613 5609 5604 5599 5596 5592 5588 5584 5580 5576 5572 5568 5564 5559 5555 5550 5546 5541 5536 5532 5526 5520 5514 5508 5504 5499 5496 5493 5489 5484 5478 5472 5467 5462 5457 5450 5442 5435 5429 5422 5414 5407 5399 5392 5385 5377 5368 5360 5351 5343 5337 5330 5322 5315 5309 5303 5297 5292 5287 5282 5277 5272 5268 5263 5259 5254 5250 5246 5242 5238 5234 5231 5227 5224 5221 5217
5652 5648 5644 5638 5633 5629 5625 5620 5616 5612 5608 5604 5599 5594 5590 5586 5581 5577 5575 5572 5567 5562 5558 5554 5549 5544 5540 5535 5531 5526 5522 5516 5510 5504 5500 5496 5491 5486 5482 5477 5471 5465 5459 5453 5447 5441 5433 5425 5418 5412 5405 5397 5390 5383 5376 5368 5360 5352 5344 5335 5327 5320 5313 5306 5299 5293 5287 5281 5276 5271 5266 5261 5257 5253 5248 5243 5239 5235 5231 5227 5223 5219 5216 5213 5210 5206
5647 5643 5638 5633 5628 5623 5619 5614 5610 5606 5603 5599 5594 5589 5585 5580 5575 5570 5568 5567 5562 5555 5549 5545 5542 5538 5533 5528 5525 5522 5519 5515 5508 5500 5494 5491 5486 5481 5476 5470 5465 5458 5451 5444 5437 5430 5424 5416 5407 5400 5393 5386 5379 5372 5365 5357 5349 5342 5334 5326 5319 5311 5303 5296 5289 5282 5276 5270 5265 5260 5254 5250 5245 5241 5237 5232 5228 5224 5220 5215 5212 5208 5205 5202 5199 5196
5642 5637 5633 5628 5623 5618 5614 5610 5605 5602 5598 5594 5589 5584 5580 5575 5570 5564 5561 5559 5556 5550 5544 5539 5534 5530 5526 5523 5520 5517 5515 5512 5507 5497 5490 5485 5480 5475 5469 5463 5457 5451 5444 5436 5430 5423 5416 5409 5401 5392 5384 5377 5370 5362 5354 5347 5339 5331 5324 5316 5309 5302 5294 5287 5279 5272 5266 5260 5254 5249 5243 5238 5234 5229 5226 5221 5217 5213 5209 5205 5201 5198 5194 5191 5189 5186
5637 5633 5628 5624 5619 5614 5609 5605 5600 5596 5592 5588 5584 5580 5575 5570 5565 5559 5556 5553 5549 5545 5541 5535 5529 5525 5521 5517 5514 5510 5506 5505 5503 5496 5486 5479 5474 5468 5462 5456 5450 5443 5436 5429 5422 5415 5408 5401 5393 5386 5377 5369 5361 5354 5346 5338 5330 5321 5314 5306 5298 5291 5284 5277 5270 5263 5256 5250 5244 5238 5233 5227 5223 5218 5214 5210 5206 5202 5198 5195 5191 5188 5184 5181 5178 5176
5633 5628 5624 5619 5613 5608 5604 5599 5595 5590 5587 5582 5578 5576 5571 5566 5560 5555 5550 5547 5543 5539 5534 5529 5524 5520 5516 5511 5507 5503 5497 5493 5492 5489 5482 5474 5467 5460 5454 5449 5443 5437 5431 5424 5416 5409 5400 5392 5385 5378 5371 5363 5355 5347 5338 5330 5321 5312 5304 5296 5288 5281 5273 5266 5260 5253 5246 5241 5234 5228 5223 5217 5212 5208 5203 5199 5196 5192 5188 5184 5181 5178 5175 5172 5169 5167
5628 5623 5619 5614 5609 5603 5598 5594 5590 5586 5583 5578 5573 5570 5567 5561 5556 5550 5544 5540 5537 5532 5526 5521 5517 5513 5509 5505 5501 5497 5491 5485 5481 5478 5474 5469 5463 5455 5448 5441 5435 5429 5423 5417 5410 5403 5395 5386 5377 5368 5361 5354 5347 5339 5330 5322 5313 5304 5295 5287 5279 5271 5263 5256 5250 5243 5237 5232 5226 5220 5214 5209 5203 5198 5194 5189 5186 5182 5178 5174 5171 5168 5165 5162 5160 5158
5623 5618 5613 5608 5604 5598 5593 5590 5586 5581 5578 5574 5569 5565 5561 5556 5550 5545 5538 5533 5528 5524 5519 5514 5510 5506 5502 5498 5494 5490 5485 5480 5475 5470 5466 5461 5456 5450 5443 5436 5430 5423 5416 5409 5402 5395 5388 5380 5371 5361 5352 5344 5336 5328 5320 5313 5304 5295 5287 5278 5270 5262 5255 5248 5241 5234 5228 5223 5217 5212 5206 5201 5195 5190 5185 5181 5177 5174 5170 5166 5162 5159 5156 5154 5152 5150
5619 5613 5607 5603 5599 5594 5588 5584 5580 5575 5571 5568 5563 5559 5555 5550 5544 5538 5532 5527 5522 5517 5513 5509 5504 5500 5496 5493 5489 5484 5480 5475 5470 5465 5460 5455 5449 5444 5437 5430 5423 5416 5409 5402 5395 5387 5380 5372 5364 5354 5345 5336 5327 5318 5310 5303 5295 5286 5277 5269 5262 5254 5246 5239 5232 5226 5219 5214 5208 5203 5197 5192 5187 5181 5176 5172 5169 5165 5162 5158 5155 5151 5148 5145 5144 5142
5613 5608 5602 5597 5592 5588 5584 5579 5575 5570 5564 5560 5557 5553 5548 5543 5537 5531 5526 5520 5515 5511 5507 5503 5499 5495 5491 5488 5484 5479 5474 5469 5465 5459 5454 5449 5443 5437 5431 5424 5417 5409 5402 5394 5387 5379 5371 5363 5355 5346 5336 5326 5318 5309 5300 5293 5286 5277 5269 5260 5252 5245 5238 5231 5223 5216 5210 5204 5198 5193 5188 5183 5177 5172 5167 5163 5159 5156 5153 5150 5147 5143 5140 5137 5136 5134
5609 5603 5599 5593 5587 5583 5579 5575 5571 5565 5559 5554 5550 5546 5541 5537 5531 5525 5519 5514 5509 5505 5501 5498 5494 5491 5487 5483 5478 5473 5468 5463 5458 5453 5448 5443 5437 5430 5424 5417 5409 5402 5395 5387 5379 5371 5363 5355 5347 5339 5329 5318 5309 5300 5291 5282 5275 5268 5260 5251 5243 5236 5229 5222 5215 5208 5201 5194 5188 5183 5178 5173 5167 5162 5157 5152 5149 5146 5143 5141 5139 5136 5132 5130 5128 5127
5604 5599 5594 5589 5584 5579 5575 5571 5567 5562 5556 5550 5545 5540 5536 5531 5526 5520 5513 5508 5503 5500 5496 5492 5489 5485 5481 5477 5473 5468 5462 5458 5453 5446 5441 5435 5429 5423 5416 5409 5402 5394 5387 5380 5372 5365 5357 5349 5340 5331 5322 5312 5301 5292 5283 5273 5264 5256 5249 5241 5234 5226 5219 5212 5205 5198 5192 5185 5179 5173 5168 5163 5159 5154 5149 5144 5140 5136 5134 5132 5130 5127 5124 5122 5121 5119
5599 5594 5590 5585 5581 5576 5571 5567 5563 5558 5552 5547 5541 5536 5530 5525 5519 5513 5507 5502 5498 5495 5492 5487 5483 5479 5475 5471 5466 5462 5457 5452 5447 5441 5434 5428 5422 5416 5409 5402 5395 5387 5379 5371 5364 5357 5349 5341 5333 5323 5314 5305 5295 5285 5275 5265 5255 5246 5238 5230 5223 5216 5210 5202 5195 5189 5183 5177 5171 5166 5160 5155 5151 5147 5142 5137 5133 5129 5126 5124 5122 5119 5117 5115 5114 5113
5595 5590 5586 5582 5577 5572 5568 5563 5559 5553 5547 5541 5535 5529 5524 5518 5512 5506 5501 5496 5493 5489 5486 5482 5477 5474 5469 5465 5461 5456 5451 5445 5440 5434 5428 5421 5415 5408 5401 5394 5387 5379 5371 5363 5355 5347 5340 5332 5324 5314 5305 5296 5287 5277 5267 5257 5247 5237 5229 5221 5213 5207 5200 5193 5186 5180 5174 5168 5163 5158 5153 5148 5144 5140 5136 5132 5127 5122 5119 5118 5116 5113 5109 5108 5108 5106
5590 5586 5581 5577 5573 5568 5563 5558 5553 5548 5542 5535 5528 5522 5517 5511 5505 5499 5495 5491 5487 5483 5480 5476 5472 5467 5463 5459 5455 5450 5444 5439 5433 5427 5421 5414 5408 5401 5394 5387 5379 5372 5364 5356 5347 5339 5331 5323 5315 5306 5296 5287 5277 5268 5258 5249 5239 5229 5220 5212 5204 5197 5191 5185 5179 5172 5166 5161 5156 5151 5146 5142 5137 5133 5130 5126 5122 5117 5111 5109 5109 5107 5104 5102 5101 5101
5586 5581 5577 5572 5568 5563 5557 5552 5546 5540 5534 5528 5520 5514 5509 5504 5499 5494 5490 5486 5482 5478 5474 5470 5466 5462 5457 5453 5448 5443 5438 5432 5426 5420 5413 5406 5400 5394 5387 5380 5373 5365 5357 5348 5340 5331 5322 5313 5305 5296 5287 5278 5268 5259 5249 5240 5231 5221 5211 5203 5195 5188 5181 5176 5171 5165 5159 5153 5148 5144 5140 5136 5131 5127 5123 5120 5117 5114 5108 5102 5101 5100 5099 5097 5096 5096
5581 5576 5572 5566 5561 5556 5550 5544 5538 5532 5526 5521 5514 5508 5503 5498 5493 5488 5484 5480 5476 5472 5468 5464 5460 5456 5452 5446 5441 5436 5432 5426 5420 5413 5406 5399 5392 5385 5379 5372 5365 5358 5350 5341 5333 5325 5316 5307 5298 5288 5279 5269 5260 5250 5241 5231 5222 5213 5203 5194 5186 5179 5171 5166 5161 5156 5151 5146 5141 5136 5133 5129 5125 5121 5118 5114 5110 5108 5105 5100 5096 5094 5093 5092 5091 5090